Date String (YYYY-MM-DD hh:mm:ss) UTC,Instrument flags,Ambient pressure (hPa),Sample flow (lpm),Bypass flow (lpm),Sample temperature (°C),Ambient temperature (°C),ASC tube jacket temperature (°C),LED temperature (°C),Box temperature (°C),Sample RH (%),Span deviation,Mass concentration (μg/m³),Mass concentration (μg/m³),Mass concentration (μg/m³)
DateTimeUTC,F1_M11,P_M11,Q1_M11,Q2_M11,T1_M11,T2_M11,T3_M11,T4_M11,T5_M11,U1_M11,ZSPAN_M11,X2_M11,X0_M11,X1_M11
2021-11-09 16:00:00,,0830.3,5.01,0.00,24.1,23.4,00.0,33.0,26.1,19.0,-001.1,0017.57,0031.57,0016.04
2021-11-09 16:01:00,,0830.3,5.00,0.00,24.2,23.4,00.0,33.0,26.1,18.9,-000.9,0017.68,0032.25,0016.17
2021-11-09 16:02:00,,0830.3,5.00,0.00,24.2,23.5,00.0,33.0,26.1,18.8,-000.9,0017.70,0032.11,0016.25
2021-11-09 16:03:00,,0830.2,4.99,0.00,24.2,23.5,00.0,33.1,26.1,18.8,-001.1,0017.74,0032.95,0016.28
2021-11-09 16:04:00,,0830.2,4.99,0.00,24.2,23.5,00.0,33.1,26.1,18.9,-000.9,0017.79,0032.97,0016.32
2021-11-09 16:05:00,,0830.2,5.01,0.00,24.3,23.5,00.0,33.1,26.1,19.0,-001.0,0017.78,0032.14,0016.34
2021-11-09 16:06:00,,0830.1,5.00,0.00,24.3,23.6,00.0,33.1,26.2,19.0,-001.1,0017.79,0030.52,0016.37
2021-11-09 16:07:00,,0830.2,5.00,0.00,24.3,23.6,00.0,33.1,26.2,18.9,-000.9,0017.91,0029.56,0016.41
2021-11-09 16:08:00,,0830.2,4.99,0.00,24.3,23.6,00.0,33.2,26.3,18.8,-000.9,0017.96,0028.03,0016.44
2021-11-09 16:09:00,,0830.2,5.00,0.00,24.3,23.6,00.0,33.2,26.3,18.9,-000.9,0017.92,0027.44,0016.44
2021-11-09 16:10:00,,0830.1,4.99,0.00,24.4,23.6,00.0,33.2,26.3,19.0,-000.9,0017.85,0027.49,0016.42
2021-11-09 16:11:00,,0830.1,5.00,0.00,24.4,23.6,00.0,33.2,26.3,19.0,-000.7,0017.78,0026.76,0016.38
2021-11-09 16:12:00,,0830.1,5.00,0.00,24.4,23.6,00.0,33.2,26.3,18.9,-000.9,0017.82,0026.01,0016.36
2021-11-09 16:13:00,,0830.0,5.01,0.00,24.4,23.7,00.0,33.3,26.3,19.0,-001.0,0017.84,0026.51,0016.35
2021-11-09 16:14:00,,0830.1,5.01,0.00,24.4,23.7,00.0,33.3,26.3,18.9,-000.9,0017.85,0026.78,0016.34
2021-11-09 16:15:00,,0830.0,4.99,0.00,24.4,23.7,00.0,33.3,26.4,18.9,-000.9,0017.86,0026.99,0016.35
2021-11-09 16:16:00,,0830.0,5.01,0.00,24.4,23.7,00.0,33.3,26.4,19.0,-000.9,0017.92,0027.47,0016.36
2021-11-09 16:17:00,,0829.9,4.99,0.00,24.5,23.8,00.0,33.3,26.4,19.0,-000.9,0017.96,0027.62,0016.39
2021-11-09 16:18:00,,0829.9,5.00,0.00,24.5,23.8,00.0,33.3,26.4,18.8,-000.9,0017.94,0027.85,0016.43
2021-11-09 16:19:00,,0830.0,4.99,0.00,24.5,23.8,00.0,33.4,26.4,18.7,-000.8,0017.99,0028.65,0016.49
2021-11-09 16:20:00,,0830.0,5.01,0.00,24.5,23.8,00.0,33.4,26.5,18.9,-000.7,0018.07,0029.19,0016.54
2021-11-09 16:21:00,,0829.9,5.00,0.00,24.6,23.9,00.0,33.4,26.5,18.9,-000.7,0018.14,0030.96,0016.55
2021-11-09 16:22:00,,0830.0,4.99,0.00,24.6,23.9,00.0,33.4,26.5,19.0,-000.8,0018.13,0032.68,0016.51
2021-11-09 16:23:00,,0830.0,5.00,0.00,24.6,23.9,00.0,33.4,26.5,18.9,-000.8,0018.08,0033.19,0016.48
2021-11-09 16:24:00,,0829.9,5.01,0.00,24.6,23.9,00.0,33.5,26.6,18.8,-000.7,0017.99,0032.82,0016.43
2021-11-09 16:25:00,,0829.9,5.01,0.00,24.6,23.9,00.0,33.5,26.6,18.9,-000.8,0017.92,0032.62,0016.40
2021-11-09 16:26:00,,0830.0,4.99,0.00,24.7,24.0,00.0,33.5,26.6,18.8,-000.6,0017.88,0032.71,0016.34
2021-11-09 16:27:00,,0830.0,5.00,0.00,24.7,24.0,00.0,33.5,26.6,18.8,-000.5,0017.86,0032.20,0016.30
2021-11-09 16:28:00,,0829.9,5.00,0.00,24.7,24.0,00.0,33.6,26.6,18.7,-000.6,0017.80,0031.76,0016.25
2021-11-09 16:29:00,,0829.9,4.99,0.00,24.7,24.0,00.0,33.6,26.6,18.8,-000.7,0017.75,0031.98,0016.18
2021-11-09 16:30:00,,0829.9,5.00,0.00,24.7,24.0,00.0,33.6,26.7,18.8,-000.8,0017.66,0031.88,0016.09
2021-11-09 16:31:00,,0829.9,5.01,0.00,24.7,24.0,00.0,33.6,26.7,18.8,-000.7,0017.58,0031.47,0016.02
2021-11-09 16:32:00,,0829.9,4.99,0.00,24.8,24.0,00.0,33.6,26.7,18.8,-000.7,0017.53,0029.29,0015.98
2021-11-09 16:33:00,,0829.8,5.00,0.00,24.8,24.1,00.0,33.6,26.7,18.8,-000.8,0017.53,0027.02,0016.01
2021-11-09 16:34:00,,0829.8,5.01,0.00,24.8,24.1,00.0,33.7,26.7,18.8,-000.7,0017.57,0027.13,0016.02
2021-11-09 16:35:00,,0829.8,5.01,0.00,24.8,24.1,00.0,33.7,26.7,18.8,-000.8,0017.57,0027.44,0016.02
2021-11-09 16:36:00,,0829.8,4.99,0.00,24.8,24.1,00.0,33.7,26.8,18.8,-000.9,0017.58,0027.43,0016.02
2021-11-09 16:37:00,,0829.8,4.99,0.00,24.9,24.1,00.0,33.7,26.8,18.8,-001.0,0017.57,0027.43,0016.02
2021-11-09 16:38:00,,0829.7,5.00,0.00,24.9,24.1,00.0,33.7,26.8,18.8,-001.2,0017.49,0028.59,0016.00
2021-11-09 16:39:00,,0829.7,5.02,0.00,24.9,24.2,00.0,33.8,26.8,18.8,-001.1,0017.52,0029.13,0016.03
2021-11-09 16:40:00,,0829.6,5.01,0.00,24.9,24.2,00.0,33.8,26.8,18.7,-001.1,0017.60,0029.70,0016.09
2021-11-09 16:41:00,,0829.6,5.00,0.00,24.9,24.2,00.0,33.8,26.8,18.7,-001.2,0017.65,0029.56,0016.16
2021-11-09 16:42:00,,0829.6,5.00,0.00,24.9,24.2,00.0,33.8,26.9,18.6,-001.2,0017.72,0029.72,0016.23
2021-11-09 16:43:00,,0829.7,5.00,0.00,25.0,24.3,00.0,33.8,26.9,18.7,-001.3,0017.80,0030.25,0016.31
2021-11-09 16:44:00,,0829.7,5.00,0.00,25.0,24.3,00.0,33.9,26.9,18.8,-001.3,0017.85,0031.12,0016.37
2021-11-09 16:45:00,,0829.7,5.00,0.00,25.0,24.3,00.0,33.9,26.9,18.7,-001.5,0017.86,0031.16,0016.43
2021-11-09 16:46:00,,0829.5,4.99,0.00,25.0,24.3,00.0,33.9,26.9,18.7,-001.3,0017.96,0030.59,0016.50
2021-11-09 16:47:00,,0829.6,5.01,0.00,25.0,24.3,00.0,33.9,26.9,18.7,-001.2,0018.02,0029.85,0016.56
2021-11-09 16:48:00,,0829.6,5.01,0.00,25.0,24.3,00.0,33.9,27.0,18.6,-001.1,0018.06,0029.77,0016.63
2021-11-09 16:49:00,,0829.6,4.99,0.00,25.1,24.4,00.0,33.9,27.0,18.7,-001.1,0018.16,0029.91,0016.73
2021-11-09 16:50:00,,0829.6,5.01,0.00,25.1,24.4,00.0,34.0,27.0,18.7,-001.3,0018.19,0030.09,0016.76
2021-11-09 16:51:00,,0829.6,5.01,0.00,25.1,24.4,00.0,34.0,27.0,18.6,-001.2,0018.14,0029.44,0016.74
2021-11-09 16:52:00,,0829.6,4.98,0.00,25.1,24.4,00.0,34.0,27.1,18.6,-001.1,0018.18,0029.17,0016.73
2021-11-09 16:53:00,,0829.6,5.01,0.00,25.2,24.4,00.0,34.0,27.1,18.5,-001.2,0018.17,0029.14,0016.68
2021-11-09 16:54:00,,0829.5,5.00,0.00,25.2,24.4,00.0,34.0,27.1,18.5,-001.3,0018.08,0029.21,0016.62
2021-11-09 16:55:00,,0829.6,4.99,0.00,25.2,24.5,00.0,34.1,27.1,18.4,-001.2,0017.99,0030.02,0016.56
2021-11-09 16:56:00,,0829.6,4.99,0.00,25.2,24.5,00.0,34.1,27.2,18.3,-001.2,0018.00,0031.13,0016.52
2021-11-09 16:57:00,,0829.6,5.01,0.00,25.2,24.5,00.0,34.1,27.2,18.4,-001.3,0017.98,0031.96,0016.49
2021-11-09 16:58:00,,0829.6,4.99,0.00,25.2,24.5,00.0,34.1,27.2,18.5,-001.3,0017.93,0032.16,0016.46
2021-11-09 16:59:00,,0829.6,5.00,0.00,25.3,24.5,00.0,34.1,27.1,18.5,-001.3,0017.94,0032.17,0016.44
